Location: Middelsbur
(53.6609°N, 7.5020°E)
Time: 13:25:43
(UTC+00:00)

Cosmos 1933 - Pass Details

Date: 06 July 2020
Orbit: 547 x 563 km, 82.5° (Epoch: 06 August)

Event Time Altitude Azimuth Distance (km) Brightness Sun altitude
Rises 23:27:15 0° 343° (NNW) 2,734 8.5 -13.8°
Reaches altitude 10° 23:29:31 10° 335° (NNW) 1,835 7.1 -13.8°
Maximum altitude 23:33:15 37° 267° (W) 864 4.3 -13.8°
Enters shadow 23:35:35 19° 211° (SSW) 1,333 4.8 -13.8°
